Ephrata, WA
on Thursday, November 15, 2012

Thursday
Previous Day Next Day
Daily Summary
 ActualAverageRecord
Temperature
Mean Temperature °F 37°F  
Max Temperature 41°F 45°F 63°F (1998)
Min Temperature 35°F 29°F -3°F (1955)
Degree Days
Heating Degree Days 27 28  
Month to date heating degree days 355 373  
Since 1 July heating degree days 850 954  
Cooling Degree Days 0 0  
Month to date cooling degree days 0 0  
Year to date cooling degree days 837 772  
Moisture
Dew Point 35°F   
Average Humidity 86    
Maximum Humidity 92    
Minimum Humidity 79    
Precipitation
Precipitation 0.00 in 0.04 in 0.43 in (1973)
Month to date precipitation 0.57 0.49  
Year to date precipitation 6.43 6.04  
Wind
Wind Speed 9 mph   
Max Wind Speed 13 mph   
Max Gust Speed 15 mph   
Visibility 10 miles   
Events     

Key: T is trace of precipitation, MM is missing value
Source: NWS Daily Summary
Time(PST)TemperatureDew PointHumidity Pressure Visibility Wind DirectionWind SpeedGust SpeedPrecipitationEvents Conditions
12:53 AM 35.1°F 33.1°F 92% 30.37 in 10.0 miles North 8.1 mph - N/A   Overcast
1:53 AM 35.1°F 33.1°F 92% 30.36 in 9.0 miles North 10.4 mph - N/A   Overcast
2:20 AM 35.6°F 33.8°F 93% 30.32 in 10.0 miles North 10.4 mph - N/A   Overcast
2:53 AM 36.0°F 34.0°F 93% 30.35 in 10.0 miles North 8.1 mph - N/A   Overcast
3:53 AM 36.0°F 33.1°F 89% 30.33 in 10.0 miles North 8.1 mph - N/A   Overcast
4:53 AM 37.0°F 34.0°F 89% 30.32 in 10.0 miles North 8.1 mph - N/A   Overcast
5:53 AM 37.0°F 34.0°F 89% 30.30 in 10.0 miles North 6.9 mph - N/A   Overcast
6:53 AM 37.0°F 35.1°F 93% 30.30 in 5.0 miles NNE 5.8 mph - N/A   Overcast
7:01 AM 37.4°F 35.6°F 93% 30.26 in 4.0 miles North 5.8 mph - N/A   Overcast
7:53 AM 37.0°F 36.0°F 96% 30.29 in 8.0 miles North 8.1 mph - N/A   Overcast
8:53 AM 39.0°F 35.1°F 86% 30.27 in 10.0 miles North 8.1 mph - N/A   Overcast
9:22 AM 39.2°F 35.6°F 87% 30.23 in 10.0 miles North 8.1 mph - N/A   Overcast
9:51 AM 39.2°F 35.6°F 87% 30.22 in 10.0 miles North 8.1 mph - N/A   Overcast
9:53 AM 39.0°F 35.1°F 86% 30.25 in 10.0 miles North 8.1 mph - N/A   Overcast
10:53 AM 39.9°F 36.0°F 86% 30.22 in 10.0 miles North 9.2 mph - N/A   Overcast
11:53 AM 41.0°F 36.0°F 82% 30.19 in 10.0 miles North 6.9 mph - N/A   Overcast
12:53 PM 41.0°F 36.0°F 82% 30.17 in 10.0 miles North 5.8 mph - N/A   Overcast
1:53 PM 39.9°F 35.1°F 83% 30.15 in 10.0 miles North 8.1 mph - N/A   Overcast
2:10 PM 41.0°F 35.6°F 81% 30.11 in 10.0 miles North 9.2 mph - N/A   Overcast
2:53 PM 41.0°F 35.1°F 79% 30.12 in 10.0 miles North 9.2 mph - N/A   Overcast
3:53 PM 39.9°F 35.1°F 83% 30.11 in 10.0 miles North 9.2 mph - N/A   Overcast
4:53 PM 39.0°F 34.0°F 82% 30.09 in 10.0 miles WNW 11.5 mph - N/A   Overcast
5:53 PM 39.0°F 34.0°F 82% 30.07 in 10.0 miles NW 10.4 mph - N/A   Overcast
6:53 PM 39.0°F 34.0°F 82% 30.06 in 10.0 miles NW 11.5 mph - N/A   Overcast
7:06 PM 39.2°F 33.8°F 81% 30.02 in 10.0 miles NW 9.2 mph - N/A   Overcast
7:17 PM 39.2°F 33.8°F 81% 30.02 in 10.0 miles NW 9.2 mph - N/A   Overcast
7:53 PM 39.0°F 34.0°F 82% 30.05 in 10.0 miles NW 11.5 mph - N/A   Overcast
8:53 PM 39.0°F 34.0°F 82% 30.04 in 10.0 miles WNW 8.1 mph - N/A   Overcast
9:53 PM 39.0°F 34.0°F 82% 30.03 in 10.0 miles WNW 9.2 mph - N/A   Overcast
10:53 PM 39.0°F 34.0°F 82% 30.02 in 10.0 miles WNW 8.1 mph - N/A   Overcast
11:53 PM 39.0°F 34.0°F 82% 30.01 in 10.0 miles WNW 8.1 mph - N/A   Overcast
Moon Phase
Nov. 15 Nov. 20 Nov. 28 Dec. 06 Dec. 13
Sunrise:07:03 AM (PST) Moon Rise:09:09 AM (PST)
Sunset:04:21 PM (PST) Moon Set:06:14 PM (PST)

Copyright © 2014 The Weather Underground, Inc.